Time,TemperatureF,DewpointF,PressureIn,WindDirection,WindDirectionDegrees,WindSpeedMPH,WindSpeedGustMPH,Humidity,HourlyPrecipIn,Conditions,Clouds,dailyrainin,SoftwareType,DateUTC
2013-01-31 00:01:00,19.0,15.0,29.66,West,273,2.0,-999.0,84,-99.99,,,-99.99,,2013-01-31 06:01:00,
2013-01-31 00:10:00,19.0,15.0,29.66,West,273,2.0,-999.0,84,-99.99,,,-99.99,,2013-01-31 06:10:00,
2013-01-31 08:02:00,15.0,11.0,29.86,West,270,2.0,-999.0,83,-99.99,,,-99.99,,2013-01-31 14:02:00,
2013-01-31 08:11:00,15.0,11.0,29.86,West,270,2.0,-999.0,83,-99.99,,,-99.99,,2013-01-31 14:11:00,
2013-01-31 08:22:00,14.0,10.0,29.87,West,277,4.0,-999.0,82,-99.99,,,-99.99,,2013-01-31 14:22:00,
2013-01-31 08:31:00,14.0,9.0,29.87,West,267,3.0,-999.0,81,-99.99,,,-99.99,,2013-01-31 14:31:00,
2013-01-31 08:42:00,14.0,9.0,29.87,West,267,3.0,-999.0,81,-99.99,,,-99.99,,2013-01-31 14:42:00,
2013-01-31 08:52:00,13.0,8.0,29.88,WSW,244,5.0,-999.0,79,-99.99,,,-99.99,,2013-01-31 14:52:00,
2013-01-31 09:03:00,13.0,7.0,29.88,WSW,248,3.0,-999.0,78,-99.99,,,-99.99,,2013-01-31 15:03:00,
2013-01-31 09:12:00,13.0,8.0,29.89,WNW,285,3.0,-999.0,79,-99.99,,,-99.99,,2013-01-31 15:12:00,
2013-01-31 09:22:00,13.0,8.0,29.89,WNW,285,3.0,-999.0,79,-99.99,,,-99.99,,2013-01-31 15:22:00,
2013-01-31 09:32:00,13.0,7.0,29.90,WSW,257,2.0,-999.0,78,-99.99,,,-99.99,,2013-01-31 15:32:00,
2013-01-31 09:42:00,13.0,7.0,29.90,WSW,257,2.0,-999.0,78,-99.99,,,-99.99,,2013-01-31 15:42:00,
2013-01-31 09:52:00,13.0,7.0,29.91,West,260,3.0,-999.0,78,-99.99,,,-99.99,,2013-01-31 15:52:00,
2013-01-31 10:03:00,13.0,8.0,29.92,WNW,284,2.0,-999.0,79,-99.99,,,-99.99,,2013-01-31 16:03:00,
2013-01-31 10:12:00,13.0,8.0,29.92,WNW,284,2.0,-999.0,79,-99.99,,,-99.99,,2013-01-31 16:12:00,
2013-01-31 10:21:00,14.0,8.0,29.92,West,277,2.0,-999.0,78,-99.99,,,-99.99,,2013-01-31 16:21:00,
2013-01-31 10:32:00,13.0,7.0,29.93,West,277,2.0,-999.0,77,-99.99,,,-99.99,,2013-01-31 16:32:00,
2013-01-31 10:42:00,13.0,7.0,29.93,West,277,2.0,-999.0,77,-99.99,,,-99.99,,2013-01-31 16:42:00,
2013-01-31 10:52:00,13.0,7.0,29.93,West,281,2.0,-999.0,77,-99.99,,,-99.99,,2013-01-31 16:52:00,
2013-01-31 11:02:00,14.0,8.0,29.94,West,273,3.0,-999.0,76,-99.99,,,-99.99,,2013-01-31 17:02:00,
2013-01-31 11:12:00,14.0,8.0,29.94,West,273,3.0,-999.0,76,-99.99,,,-99.99,,2013-01-31 17:12:00,
2013-01-31 11:23:00,14.0,8.0,29.94,WNW,284,4.0,-999.0,76,-99.99,,,-99.99,,2013-01-31 17:23:00,
2013-01-31 11:32:00,14.0,8.0,29.94,West,275,3.0,-999.0,75,-99.99,,,-99.99,,2013-01-31 17:32:00,
2013-01-31 11:43:00,14.0,8.0,29.94,West,275,3.0,-999.0,75,-99.99,,,-99.99,,2013-01-31 17:43:00,
2013-01-31 11:53:00,13.0,6.0,29.94,West,275,2.0,-999.0,74,-99.99,,,-99.99,,2013-01-31 17:53:00,
2013-01-31 12:02:00,13.0,7.0,29.95,West,262,4.0,-999.0,75,-99.99,,,-99.99,,2013-01-31 18:02:00,
2013-01-31 12:12:00,14.0,7.0,29.95,WSW,254,3.0,-999.0,74,-99.99,,,-99.99,,2013-01-31 18:12:00,
2013-01-31 12:22:00,14.0,7.0,29.95,WSW,254,3.0,-999.0,74,-99.99,,,-99.99,,2013-01-31 18:22:00,
2013-01-31 12:32:00,14.0,7.0,29.95,WSW,256,4.0,-999.0,73,-99.99,,,-99.99,,2013-01-31 18:32:00,
2013-01-31 12:43:00,14.0,7.0,29.95,WSW,256,4.0,-999.0,73,-99.99,,,-99.99,,2013-01-31 18:43:00,
2013-01-31 12:52:00,13.0,6.0,29.96,WNW,287,4.0,-999.0,74,-99.99,,,-99.99,,2013-01-31 18:52:00,
2013-01-31 13:02:00,13.0,6.0,29.96,West,263,3.0,-999.0,74,-99.99,,,-99.99,,2013-01-31 19:02:00,
2013-01-31 13:12:00,13.0,6.0,29.96,West,263,3.0,-999.0,74,-99.99,,,-99.99,,2013-01-31 19:12:00,
2013-01-31 13:22:00,13.0,6.0,29.96,WSW,248,4.0,-999.0,73,-99.99,,,-99.99,,2013-01-31 19:22:00,
2013-01-31 13:32:00,13.0,6.0,29.97,WNW,284,3.0,-999.0,74,-99.99,,,-99.99,,2013-01-31 19:32:00,
2013-01-31 13:42:00,13.0,6.0,29.97,WNW,284,3.0,-999.0,74,-99.99,,,-99.99,,2013-01-31 19:42:00,
2013-01-31 13:52:00,13.0,6.0,29.97,West,273,4.0,-999.0,73,-99.99,,,-99.99,,2013-01-31 19:52:00,
2013-01-31 14:02:00,13.0,6.0,29.97,NW,306,4.0,-999.0,72,-99.99,,,-99.99,,2013-01-31 20:02:00,
2013-01-31 14:11:00,13.0,6.0,29.97,NW,306,4.0,-999.0,72,-99.99,,,-99.99,,2013-01-31 20:11:00,
2013-01-31 14:21:00,13.0,6.0,29.97,West,277,5.0,-999.0,74,-99.99,,,-99.99,,2013-01-31 20:21:00,
2013-01-31 14:31:00,13.0,6.0,29.98,West,260,2.0,-999.0,74,-99.99,,,-99.99,,2013-01-31 20:31:00,
2013-01-31 14:42:00,13.0,6.0,29.98,West,266,3.0,-999.0,73,-99.99,,,-99.99,,2013-01-31 20:42:00,
2013-01-31 14:52:00,13.0,6.0,29.98,West,266,3.0,-999.0,73,-99.99,,,-99.99,,2013-01-31 20:52:00,
2013-01-31 15:02:00,12.0,5.0,29.98,SW,225,2.0,-999.0,74,-99.99,,,-99.99,,2013-01-31 21:02:00,
2013-01-31 15:12:00,12.0,6.0,29.99,NW,307,3.0,-999.0,77,-99.99,,,-99.99,,2013-01-31 21:12:00,
2013-01-31 15:21:00,12.0,6.0,29.99,NW,307,3.0,-999.0,77,-99.99,,,-99.99,,2013-01-31 21:21:00,
2013-01-31 15:31:00,12.0,6.0,30.00,West,271,3.0,-999.0,77,-99.99,,,-99.99,,2013-01-31 21:31:00,
2013-01-31 15:42:00,12.0,6.0,30.00,West,271,3.0,-999.0,77,-99.99,,,-99.99,,2013-01-31 21:42:00,
2013-01-31 15:52:00,11.0,5.0,30.01,WNW,283,2.0,-999.0,77,-99.99,,,-99.99,,2013-01-31 21:52:00,
2013-01-31 16:02:00,11.0,5.0,30.01,West,280,2.0,-999.0,75,-99.99,,,-99.99,,2013-01-31 22:02:00,
2013-01-31 16:11:00,11.0,4.0,30.02,West,266,4.0,-999.0,74,-99.99,,,-99.99,,2013-01-31 22:11:00,
2013-01-31 16:22:00,11.0,4.0,30.02,West,266,4.0,-999.0,74,-99.99,,,-99.99,,2013-01-31 22:22:00,
2013-01-31 16:32:00,11.0,5.0,30.03,West,262,5.0,-999.0,75,-99.99,,,-99.99,,2013-01-31 22:32:00,
2013-01-31 16:42:00,11.0,5.0,30.03,West,262,5.0,-999.0,75,-99.99,,,-99.99,,2013-01-31 22:42:00,
2013-01-31 16:52:00,11.0,5.0,30.03,West,271,2.0,-999.0,77,-99.99,,,-99.99,,2013-01-31 22:52:00,
2013-01-31 17:02:00,10.0,5.0,30.04,WNW,292,3.0,-999.0,78,-99.99,,,-99.99,,2013-01-31 23:02:00,
2013-01-31 17:12:00,10.0,5.0,30.05,West,271,3.0,-999.0,79,-99.99,,,-99.99,,2013-01-31 23:12:00,
2013-01-31 17:22:00,10.0,5.0,30.05,West,271,3.0,-999.0,79,-99.99,,,-99.99,,2013-01-31 23:22:00,
2013-01-31 17:31:00,9.0,4.0,30.06,WNW,286,2.0,-999.0,80,-99.99,,,-99.99,,2013-01-31 23:31:00,
2013-01-31 17:42:00,9.0,4.0,30.06,WNW,286,2.0,-999.0,80,-99.99,,,-99.99,,2013-01-31 23:42:00,
2013-01-31 17:52:00,9.0,5.0,30.07,WNW,284,3.0,-999.0,82,-99.99,,,-99.99,,2013-01-31 23:52:00,
2013-01-31 18:01:00,8.0,4.0,30.08,West,279,4.0,-999.0,83,-99.99,,,-99.99,,2013-02-01 00:01:00,
2013-01-31 18:11:00,8.0,4.0,30.08,West,279,4.0,-999.0,83,-99.99,,,-99.99,,2013-02-01 00:11:00,
2013-01-31 18:22:00,8.0,4.0,30.09,WSW,258,1.0,-999.0,83,-99.99,,,-99.99,,2013-02-01 00:22:00,
2013-01-31 18:31:00,7.0,3.0,30.11,West,261,4.0,-999.0,83,-99.99,,,-99.99,,2013-02-01 00:31:00,
2013-01-31 18:42:00,7.0,3.0,30.11,West,261,4.0,-999.0,83,-99.99,,,-99.99,,2013-02-01 00:42:00,
2013-01-31 18:52:00,7.0,2.0,30.11,WNW,282,3.0,-999.0,81,-99.99,,,-99.99,,2013-02-01 00:52:00,
2013-01-31 19:01:00,7.0,2.0,30.12,West,264,3.0,-999.0,80,-99.99,,,-99.99,,2013-02-01 01:01:00,
2013-01-31 19:11:00,6.0,1.0,30.13,West,269,3.0,-999.0,79,-99.99,,,-99.99,,2013-02-01 01:11:00,
2013-01-31 19:21:00,6.0,1.0,30.13,West,269,3.0,-999.0,79,-99.99,,,-99.99,,2013-02-01 01:21:00,
2013-01-31 19:31:00,6.0,1.0,30.14,West,273,3.0,-999.0,79,-99.99,,,-99.99,,2013-02-01 01:31:00,
2013-01-31 19:42:00,6.0,1.0,30.14,West,273,3.0,-999.0,79,-99.99,,,-99.99,,2013-02-01 01:42:00,
2013-01-31 19:52:00,6.0,1.0,30.14,West,267,3.0,-999.0,79,-99.99,,,-99.99,,2013-02-01 01:52:00,
2013-01-31 20:01:00,6.0,1.0,30.15,NNW,346,3.0,-999.0,79,-99.99,,,-99.99,,2013-02-01 02:01:00,
2013-01-31 20:11:00,6.0,1.0,30.15,NNW,346,3.0,-999.0,79,-99.99,,,-99.99,,2013-02-01 02:11:00,
2013-01-31 20:21:00,6.0,1.0,30.16,West,280,2.0,-999.0,78,-99.99,,,-99.99,,2013-02-01 02:21:00,
2013-01-31 20:31:00,6.0,1.0,30.16,West,280,3.0,-999.0,79,-99.99,,,-99.99,,2013-02-01 02:31:00,
2013-01-31 20:41:00,6.0,1.0,30.16,West,280,3.0,-999.0,79,-99.99,,,-99.99,,2013-02-01 02:41:00,
2013-01-31 20:52:00,5.0,0.0,30.17,West,281,2.0,-999.0,79,-99.99,,,-99.99,,2013-02-01 02:52:00,
2013-01-31 21:01:00,5.0,0.0,30.18,West,275,4.0,-999.0,78,-99.99,,,-99.99,,2013-02-01 03:01:00,
2013-01-31 21:12:00,5.0,0.0,30.18,West,275,4.0,-999.0,78,-99.99,,,-99.99,,2013-02-01 03:12:00,
2013-01-31 21:21:00,5.0,0.0,30.19,West,261,3.0,-999.0,78,-99.99,,,-99.99,,2013-02-01 03:21:00,
2013-01-31 21:32:00,5.0,0.0,30.19,NNW,335,2.0,-999.0,78,-99.99,,,-99.99,,2013-02-01 03:32:00,
2013-01-31 21:41:00,5.0,0.0,30.19,NNW,335,2.0,-999.0,78,-99.99,,,-99.99,,2013-02-01 03:41:00,
2013-01-31 21:52:00,4.0,-1.0,30.20,WSW,246,2.0,-999.0,78,-99.99,,,-99.99,,2013-02-01 03:52:00,
2013-01-31 22:02:00,4.0,-2.0,30.21,NNW,331,2.0,-999.0,77,-99.99,,,-99.99,,2013-02-01 04:02:00,
2013-01-31 22:11:00,4.0,-2.0,30.22,West,274,4.0,-999.0,77,-99.99,,,-99.99,,2013-02-01 04:11:00,
2013-01-31 22:21:00,4.0,-2.0,30.22,West,274,4.0,-999.0,77,-99.99,,,-99.99,,2013-02-01 04:21:00,
2013-01-31 22:31:00,3.0,-3.0,30.22,West,273,2.0,-999.0,77,-99.99,,,-99.99,,2013-02-01 04:31:00,
2013-01-31 22:41:00,3.0,-3.0,30.22,West,273,2.0,-999.0,77,-99.99,,,-99.99,,2013-02-01 04:41:00,
2013-01-31 22:52:00,3.0,-3.0,30.22,WNW,292,3.0,-999.0,77,-99.99,,,-99.99,,2013-02-01 04:52:00,
2013-01-31 23:03:00,3.0,-3.0,30.22,WNW,292,3.0,-999.0,77,-99.99,,,-99.99,,2013-02-01 05:03:00,
2013-01-31 23:11:00,3.0,-3.0,30.22,WNW,292,3.0,-999.0,77,-99.99,,,-99.99,,2013-02-01 05:11:00,
2013-01-31 23:22:00,3.0,-3.0,30.23,WSW,253,2.0,-999.0,77,-99.99,,,-99.99,,2013-02-01 05:22:00,
2013-01-31 23:32:00,3.0,-2.0,30.24,WSW,244,2.0,-999.0,78,-99.99,,,-99.99,,2013-02-01 05:32:00,
2013-01-31 23:42:00,3.0,-2.0,30.24,WSW,244,2.0,-999.0,78,-99.99,,,-99.99,,2013-02-01 05:42:00,
2013-01-31 23:52:00,2.0,-3.0,30.24,NE,43,2.0,-999.0,78,-99.99,,,-99.99,,2013-02-01 05:52:00,